WetterOnline ( https://www.wetteronline.de )

Wetter aktuell Le Touquet-Paris-Plage

Aktuelles Wetter: Le Touquet-Paris-Plage (13m)

6-stündlich | Neueste Meldungen
Ortszeit Temperatur Wetter
Di, 23.07. 8:00 17.5° C bedeckt
Di, 23.07. 2:00 18.0° C leichter Regen
Mo, 22.07. 20:00 19.3° C bedeckt
Mo, 22.07. 14:00 18.7° C bedeckt
Mo, 22.07. 8:00 17.1° C bewölkt
Mo, 22.07. 2:00 16.5° C bedeckt
So, 21.07. 20:00 18.7° C bedeckt
So, 21.07. 14:00 19.7° C bewölkt
Ortszeit Temperatur Wetter
Di, 23.07. 13:00 18.4° C bedeckt
Di, 23.07. 12:00 18.1° C bedeckt
Di, 23.07. 11:00 18.2° C bedeckt
Di, 23.07. 10:00 18.1° C bedeckt
Di, 23.07. 9:00 17.8° C bedeckt
Di, 23.07. 8:00 17.5° C bedeckt
Di, 23.07. 7:00 17.5° C bedeckt
Ortszeit Relative Feuchte Sichtweite
Di, 23.07. 8:00 88% 19 km
Di, 23.07. 2:00 100% 1.8 km
Mo, 22.07. 20:00 85% 50 km
Mo, 22.07. 14:00 78% 18 km
Mo, 22.07. 8:00 80% 35 km
Mo, 22.07. 2:00 85% 19 km
So, 21.07. 20:00 81% 35 km
So, 21.07. 14:00 81% 40 km
Ortszeit Relative Feuchte Sichtweite
Di, 23.07. 13:00 79% 19 km
Di, 23.07. 12:00 80% 19 km
Di, 23.07. 11:00 75% 18 km
Di, 23.07. 10:00 77% 19 km
Di, 23.07. 9:00 76% 26 km
Di, 23.07. 8:00 88% 19 km
Di, 23.07. 7:00 94% 40 km
Ortszeit Niederschlagsmenge Niederschlagsart
Di, 23.07. 8:00 3 l/m2 in 12 Std. -
Di, 23.07. 2:00 2 l/m2 in 6 Std. -
Mo, 22.07. 20:00 0.2 l/m2 in 12 Std. -
Mo, 22.07. 14:00 0.0 l/m2 in 6 Std. -
Mo, 22.07. 8:00 0.0 l/m2 in 12 Std. -
Mo, 22.07. 2:00 0.0 l/m2 in 6 Std. -
So, 21.07. 20:00 0.0 l/m2 in 12 Std. -
So, 21.07. 14:00 0.0 l/m2 in 6 Std. -
Ortszeit Niederschlagsmenge Niederschlagsart
Di, 23.07. 13:00 0.0 l/m2 in 1 Std. -
Di, 23.07. 12:00 0.0 l/m2 in 1 Std. -
Di, 23.07. 11:00 keine Meldung -
Di, 23.07. 10:00 0.0 l/m2 in 1 Std. -
Di, 23.07. 9:00 0.0 l/m2 in 1 Std. -
Di, 23.07. 8:00 keine Meldung -
Di, 23.07. 7:00 0.0 l/m2 in 1 Std. -
Ortszeit Stärke Spitze Richtung
km/h Bft. km/h Grad Sektor
Di, 23.07. 8:00 24 4 44 260° W
Di, 23.07. 2:00 11 2 28 230° SW
Mo, 22.07. 20:00 17 3 35 240° SW
Mo, 22.07. 14:00 20 4 37 220° SW
Mo, 22.07. 8:00 15 3 31 260° W
Mo, 22.07. 2:00 15 3 31 260° W
So, 21.07. 20:00 20 4 41 260° W
So, 21.07. 14:00 19 3 31 240° SW
Ortszeit Stärke Spitze Richtung
km/h Bft. km/h Grad Sektor
Di, 23.07. 13:00 26 4 48 250° W
Di, 23.07. 12:00 20 4 56 270° W
Di, 23.07. 11:00 24 4 46 270° W
Di, 23.07. 10:00 26 4 50 260° W
Di, 23.07. 9:00 24 4 46 260° W
Di, 23.07. 8:00 24 4 44 260° W
Di, 23.07. 7:00 20 4 43 250° W
Ortszeit Untergrenze Bedeckung Gattung
total tief tief mittel hoch
Di, 23.07. 8:00 - 8/8 - - - -
Di, 23.07. 2:00 - 8/8 - - - -
Mo, 22.07. 20:00 - 8/8 - - - -
Mo, 22.07. 14:00 - 8/8 - - - -
Mo, 22.07. 8:00 - 7/8 - - - -
Mo, 22.07. 2:00 - 8/8 - - - -
So, 21.07. 20:00 - 8/8 - - - -
So, 21.07. 14:00 - 7/8 - - - -
Ortszeit Bedeckungsgrad in Achtel und Wolkenuntergrenze
Di, 23.07. 13:00 8
Di, 23.07. 12:00 8
Di, 23.07. 11:00 8
Di, 23.07. 10:00 8
Di, 23.07. 9:00 8
Di, 23.07. 8:00 8
Di, 23.07. 7:00 8
Ortszeit Luftdruck NN (hPa) Tendenz (hPa in 3 Std.)
Di, 23.07. 8:00 1017 + 0,3
Di, 23.07. 2:00 1017 - 1,0
Mo, 22.07. 20:00 1018 - 0,6
Mo, 22.07. 14:00 1019 + 0,1
Mo, 22.07. 8:00 1018 + 1,1
Mo, 22.07. 2:00 1016 + 0,8
So, 21.07. 20:00 1014 + 0,8
So, 21.07. 14:00 1011 + 1,2
Ortszeit Luftdruck NN (hPa) Tendenz (hPa in 3 Std.)
Di, 23.07. 13:00 1019 + 1,6
Di, 23.07. 12:00 1018 + 1,3
Di, 23.07. 11:00 1018 + 0,9
Di, 23.07. 10:00 1017 + 0,7
Di, 23.07. 9:00 1017 + 0,5
Di, 23.07. 8:00 1017 + 0,3
Di, 23.07. 7:00 1017 - 0,1
Ortszeit Schneehöhe (cm)
Di, 23.07. 8:00 0
Di, 23.07. 2:00 0
Mo, 22.07. 20:00 0
Mo, 22.07. 14:00 0
Mo, 22.07. 8:00 0
Mo, 22.07. 2:00 0
So, 21.07. 20:00 0
So, 21.07. 14:00 0
Ortszeit Schneehöhe (cm)
Di, 23.07. 13:00 -
Di, 23.07. 12:00 -
Di, 23.07. 11:00 0
Di, 23.07. 10:00 -
Di, 23.07. 9:00 -
Di, 23.07. 8:00 0
Di, 23.07. 7:00 -
Link zu dieser Seite / Seite empfehlen

Das Wetter in ...